Regional Weather Roundup
Issued by NWS

Home | Current Version | Previous Version | Text Only | Print | Product List | Glossary Off
Versions: 1 2 3 4 5 6 7 8 9 10 11 12 13 14 15 16 17 18 19 20 21 22 23 24 25 26 27 28 29 30 31 32 33 34 35 36 37 38 39 40 41 42 43 44 45 46 47 48 49 50

000
ASUS43 KMPX 010410
RWRMN
WEATHER ROUNDUP FOR MINNESOTA
NATIONAL WEATHER SERVICE TWIN CITIES/CHANHASSEN MN
1100 PM CDT SUN AUG 31 2014


NOTE: "FAIR" INDICATES FEW OR NO CLOUDS BELOW 12,000 FEET WITH NO
SIGNIFICANT WEATHER AND/OR OBSTRUCTIONS TO VISIBILITY. N/A MEANS
CURRENT SKY AND/OR WEATHER CONDITIONS ARE NOT AVAILABLE.

MNZ060>063-068>070-010500-
   Twin Cities Metro

CITY           SKY/WX    TMP DP  RH WIND       PRES   REMARKS
TWIN CITIES    RAIN      66  65  96 N6        29.65F FOG
ST PAUL        RAIN      66  63  90 N5        29.64F
CRYSTAL        LGT RAIN  67  64  90 N5        29.64F
BLAINE         LGT RAIN  68  66  94 CALM      29.66F
LAKEVILLE      RAIN      64  63  94 CALM      29.65F
EDEN PRAIRIE   LGT RAIN  66  65  96 CALM      29.64F
SOUTH ST PAUL  RAIN      67  64  91 N5        29.65F
LAKE ELMO      RAIN      66  64  94 NW9       29.65F
$$
MNZ001>005-007-008-013>017-022>024-027-028-010500-
   Northwest Minnesota

CITY           SKY/WX    TMP DP  RH WIND       PRES   REMARKS
BEMIDJI        CLOUDY    62  60  94 W5        29.64S
HALLOCK        CLOUDY    61  59  94 NW6       29.62R
ROSEAU         MOCLDY    61  55  82 W5        29.61R
WARROAD        MOCLDY    59  55  88 W3        29.61R
THIEF RVR FALL MOCLDY    59  57  94 CALM      29.64R
CROOKSTON      PTCLDY    61  59  94 N6        29.64R
FOSSTON        MOCLDY    57  55  94 CALM      29.65F
DETROIT LAKES  CLOUDY    64  61  88 NW5       29.67R
MOORHEAD       CLOUDY    64  64 100 CALM      29.66R
PARK RAPIDS    CLOUDY    63  62  97 CALM      29.63F
MAHNOMEN       FAIR      60  59  97 CALM      29.64F
$$
MNZ006-009>011-018-025>026-010500-
   North Central Minnesota

CITY           SKY/WX    TMP DP  RH WIND       PRES   REMARKS
BAUDETTE       CLOUDY    62  59  90 W5        29.60R
FLAG ISLAND    CLOUDY    61  57  88 W15       29.56R
INTL FALLS     CLOUDY    64  62  93 SW7       29.58S
WASKISH        PTCLDY    64  59  82 W13G21    29.63R
BIG FORK       CLOUDY    63  61  94 CALM      29.63R
LONGVILLE      DRIZZLE   64  63  94 CALM      29.64R
GRAND RAPIDS   CLOUDY    64  61  88 S3        29.63R
CRANE LAKE     CLOUDY    63  61  94 CALM      29.62R
ORR            MOCLDY    63  59  88 CALM      29.58R
COOK           MOCLDY    64  63  94 CALM      29.62R
WALKER         FAIR      64  61  90 W5        29.63F
$$
MNZ012-019>021-037-010500-
   Northeast Minnesota

CITY           SKY/WX    TMP DP  RH WIND       PRES   REMARKS
DULUTH         LGT RAIN  64  60  87 N3        29.64R
ELY            CLOUDY    63  59  88 S5        29.61S
HIBBING        CLOUDY    64  62  93 S3        29.64R
EVELETH        CLOUDY    63  63 100 CALM      29.65R
DULUTH HARBOR  CLOUDY    63  61  94 N10       29.62S
TWO HARBORS    CLOUDY    61  55  82 CALM      29.61F
SILVER BAY     CLOUDY    61  61 100 CALM      29.62R
GRAND MARAIS     N/A     64  59  83 NE8       29.65S
G MARAIS ARPRT CLOUDY    61  57  88 SE6       29.68S
$$
MNZ029>031-032-039>041-046>048-054>057-064-010500-
   West Central Minnesota

CITY           SKY/WX    TMP DP  RH WIND       PRES   REMARKS
FERGUS FALLS   CLOUDY    64  63  94 SW3       29.67R
WHEATON        CLOUDY    61  59  94 W3        29.69R
MORRIS         CLOUDY    64  64 100 CALM      29.67R
ALEXANDRIA     CLOUDY    66  63  90 W6        29.68R
ELBOW LAKE     MOCLDY    64  63  97 CALM      29.67R
WADENA         CLOUDY    63  63 100 CALM      29.65S
GLENWOOD       CLOUDY    66  64  94 SW3       29.68R
APPLETON       CLOUDY    66  63  88 CALM      29.66S
BENSON         CLOUDY    66  64  94 CALM      29.66S
ORTONVILLE     CLOUDY    64  61  88 W5        29.67S
MADISON        CLOUDY    68  64  88 W5        29.68R
WILLMAR        LGT RAIN  68  64  88 CALM      29.68R
$$
MNZ033>034-036-042>043-049>051-058-059-010500-
   Central Minnesota

CITY           SKY/WX    TMP DP  RH WIND       PRES   REMARKS
ST CLOUD       LGT RAIN  67  64  90 SE7       29.66R
SAUK CENTRE    CLOUDY    66  63  88 SW3       29.66S
PAYNESVILLE    LGT RAIN  64  64  99 SE6       29.67R
AITKIN         MIX PCPN  66  61  82 CALM      29.62F
PINE RIVER     LGT RAIN  64  64 100 CALM      29.69R
BRAINERD       CLOUDY    66  64  93 W5        29.65R
STAPLES        CLOUDY    64  63  94 CALM      29.65S
LONG PRAIRIE   CLOUDY    64  63  94 CALM      29.66S
LITTLE FALLS   CLOUDY    64  63  94 CALM      29.65S
LITCHFIELD     LGT RAIN  66  66 100 CALM      29.68R
BUFFALO        RAIN      65  64  93 CALM      29.67F
MAPLE LAKE     LGT RAIN  66  65  97 CALM      29.67S
$$
MNZ037-044-045-052-053-010500-
   East Central Minnesota

CITY           SKY/WX    TMP DP  RH WIND       PRES   REMARKS
PRINCETON      CLOUDY    66  66 100 S3        29.67R
MORA           RAIN      63  59  88 S3        29.67F
CAMBRIDGE      RAIN      68  61  77 S5        29.65S
RUSH CITY      LGT RAIN  66  63  91 S8        29.69R
MOOSE LAKE     LGT RAIN  64  63  94 CALM      29.62R
HINCKLEY       LGT RAIN  66  64  94 S3        29.65R
CLOQUET        CLOUDY    63  61  94 CALM      29.64R FOG
MCGREGOR       CLOUDY    64  63  94 CALM      29.64R
$$
MNZ071>073-080-081-089-090-097-098-010500-
   Southwest Minnesota

CITY           SKY/WX    TMP DP  RH WIND       PRES   REMARKS
MONTEVIDEO     CLOUDY    66  64  94 W3        29.68R
GRANITE FALLS  CLOUDY    65  64  97 CALM      29.69R
CANBY          CLOUDY    64  63  94 W3        29.70R
MARSHALL       CLOUDY    66  63  88 NW5       29.68R
REDWOOD FALLS  LGT RAIN  68  66  93 E3        29.67R
OLIVIA         LGT RAIN  70  68  94 SE3       29.67S
PIPESTONE      CLOUDY    64  61  88 CALM      29.70S
WINDOM         CLOUDY    66  64  94 E6        29.69R
WORTHINGTON    CLOUDY    66  64  94 SW5       29.71R
JACKSON        CLOUDY    64  63  94 S6        29.69F
TRACY          CLOUDY    66  64  93 CALM      29.69S
SLAYTON        CLOUDY    64  64  98 CALM      29.72R
$$
MNZ065>067-074>077-082>085-091>093-010500-
   South Central Minnesota

CITY           SKY/WX    TMP DP  RH WIND       PRES   REMARKS
MANKATO        CLOUDY    66  63  88 NE12      29.61F
NEW ULM        LGT RAIN  66  64  94 N3        29.64F
ST JAMES       LGT RAIN  68  66  94 S8        29.69R
FAIRMONT       CLOUDY    64  61  88 S6        29.70F
GLENCOE        LGT RAIN  66  63  89 N3        29.65F
FARIBAULT      TSTM      70  63  78 CALM      29.67S
OWATONNA       TSTM      66  63  88 E8        29.64F
WASECA         RAIN      63  59  88 N7        29.66R
ALBERT LEA     TSTM      64  64 100 SE20      29.62F
$$
MNZ078>079-086>088-094>096-010500-
   Southeast Minnesota

CITY           SKY/WX    TMP DP  RH WIND       PRES   REMARKS
ROCHESTER      TSTM      65  63  93 SW14      29.72R FOG
RED WING       TSTM      70  64  83 N7        29.67F
STANTON        RAIN      67  64  90 E6        29.63F
DODGE CENTER   TSTM      66  64  94 W5        29.69F
WINONA         CLOUDY    70  64  83 CALM      29.67F
AUSTIN         TSTM      64  63  94 S10       29.72S
PRESTON        LGT RAIN  64  64 100 SW12G18   29.75R
$$
ABBREVIATIONS USED IN REMARKS
   TC - TEMPERATURES IN CELSIUS
  WCI - WIND CHILL INDEX
   HX - HEAT INDEX
  VSB - VISIBILITY
$$


USA.gov is the U.S. government's official web portal to all federal, state and local government web resources and services.